Change the Weather History Date:

Sunday, September 22, 2013

  Actual Average Record
Temperature  
Mean Temperature 58 °F -  
Max Temperature 75 °F 75 °F 93 °F (2005)
Min Temperature 44 °F 49 °F 37 °F (1999)
Degree Days  
Heating Degree Days 6    
Growing Degree Days 8 (Base 50)    
Moisture  
Dew Point 48 °F    
Average Humidity 79    
Maximum Humidity 100    
Minimum Humidity 37    
Precipitation  
Precipitation 0.00 in - - ()
Sea Level Pressure  
Sea Level Pressure 29.97 in    
Wind  
Wind Speed 1 mph (ENE)    
Max Wind Speed 6 mph    
Max Gust Speed -    
Visibility 7 miles    
Events Fog    
Averages and records for this station are not official NWS values.
T = Trace of Precipitation, MM = Missing Value Source: NWS Daily Summary

Daily Weather History Graph

Daily Weather History Graph

Search for Another Location

Airport or City:

Trip Planner

Search our weather history database for the weather conditions in past years. The results will help you decide how hot, cold, wet, or windy it might be!

Date:

Astronomy

Sep. 22, 2013 Rise Set
Actual Time 6:50 AM CDT 6:59 PM CDT
Civil Twilight 6:24 AM CDT 7:25 PM CDT
Nautical Twilight 5:53 AM CDT 7:56 PM CDT
Astronomical Twilight 5:21 AM CDT 8:28 PM CDT
Moon 8:52 PM CDT (9/22) 10:08 AM CDT (9/22)
Length of Visible Light 13h 01m
Length of Day
12h 08m
Waning Gibbous, 88% of the Moon is Illuminated
Sep 22
Waning Gibbous
Sep 26
Last Quarter
Oct 4
New
Oct 11
First Quarter
Oct 18
Full

Hourly Weather History & Observations

Time (CDT) Temp. Windchill Dew Point Humidity Pressure Visibility Wind Dir Wind Speed Gust Speed Precip Events Conditions
12:54 AM 50.0 °F - 48.0 °F 93% 29.95 in 9.0 mi Calm Calm - N/A   Clear
1:54 AM 48.9 °F - 46.9 °F 93% 29.96 in 9.0 mi Calm Calm - N/A   Clear
2:41 AM 48.2 °F - 46.4 °F 93% 29.95 in 1.5 mi Calm Calm - N/A   Clear
2:54 AM 48.0 °F - 46.0 °F 93% 29.95 in 2.5 mi Calm Calm - N/A   Clear
3:01 AM 46.4 °F - 46.4 °F 100% 29.95 in 6.0 mi Calm Calm - N/A   Clear
3:23 AM 48.2 °F - 46.4 °F 93% 29.95 in 1.8 mi Calm Calm - N/A   Clear
3:35 AM 46.4 °F 45.2 °F 44.6 °F 93% 29.96 in 3.0 mi WSW 3.5 mph - N/A   Clear
3:54 AM 48.0 °F - 46.0 °F 93% 29.96 in 10.0 mi Calm Calm - N/A   Clear
4:54 AM 46.0 °F - 45.0 °F 96% 29.96 in 5.0 mi Calm Calm - N/A   Clear
5:13 AM 46.4 °F - 44.6 °F 93% 29.97 in 4.0 mi Calm Calm - N/A   Scattered Clouds
5:16 AM 46.4 °F - 44.6 °F 93% 29.97 in 2.5 mi Calm Calm - N/A   Mostly Cloudy
5:29 AM 46.4 °F - 44.6 °F 93% 29.97 in 0.8 mi Calm Calm - N/A   Mist
5:52 AM 44.6 °F - 44.6 °F 100% 29.97 in 0.8 mi Calm Calm - N/A   Clear
5:54 AM 45.0 °F - 45.0 °F 100% 29.97 in 0.8 mi Calm Calm - N/A   Clear
6:30 AM 46.4 °F - 44.6 °F 93% 29.99 in 1.5 mi Calm Calm - N/A   Clear
6:41 AM 46.4 °F - 44.6 °F 93% 29.99 in 3.0 mi Calm Calm - N/A   Clear
6:54 AM 46.0 °F 44.8 °F 45.0 °F 96% 29.99 in 3.0 mi WSW 3.5 mph - N/A   Clear
7:54 AM 48.9 °F - 48.0 °F 97% 30.01 in 3.0 mi Calm Calm - N/A Fog Shallow Fog
8:54 AM 54.0 °F - 51.1 °F 90% 30.02 in 10.0 mi Calm Calm - N/A   Clear
9:54 AM 62.1 °F - 52.0 °F 70% 30.03 in 10.0 mi Calm Calm - N/A   Clear
10:54 AM 66.9 °F - 50.0 °F 54% 30.02 in 10.0 mi Variable 4.6 mph - N/A   Clear
11:54 AM 70.0 °F - 46.9 °F 44% 30.01 in 10.0 mi East 4.6 mph - N/A   Clear
12:54 PM 72.0 °F - 48.9 °F 44% 29.99 in 10.0 mi NE 5.8 mph - N/A   Clear
1:54 PM 72.0 °F - 48.0 °F 43% 29.96 in 10.0 mi Calm Calm - N/A   Clear
2:54 PM 73.9 °F - 48.9 °F 41% 29.94 in 10.0 mi Calm Calm - N/A   Clear
3:54 PM 73.9 °F - 46.0 °F 37% 29.94 in 10.0 mi Variable 3.5 mph - N/A   Clear
4:54 PM 73.9 °F - 46.0 °F 37% 29.93 in 10.0 mi NE 3.5 mph - N/A   Clear
5:54 PM 73.9 °F - 46.9 °F 38% 29.93 in 10.0 mi ENE 5.8 mph - N/A   Clear
6:54 PM 66.9 °F - 51.1 °F 57% 29.93 in 10.0 mi East 3.5 mph - N/A   Clear
7:54 PM 59.0 °F - 53.1 °F 81% 29.94 in 10.0 mi Calm Calm - N/A   Clear
8:54 PM 57.0 °F - 53.1 °F 87% 29.94 in 10.0 mi Calm Calm - N/A   Clear
9:54 PM 55.0 °F - 52.0 °F 89% 29.96 in 10.0 mi Calm Calm - N/A   Clear
10:54 PM 54.0 °F - 50.0 °F 86% 29.96 in 10.0 mi Calm Calm - N/A   Clear
11:54 PM 52.0 °F - 50.0 °F 93% 29.96 in 10.0 mi Calm Calm - N/A   Clear